Weather History for PAHN - February, 2013

Change the Weather History Date:

Wednesday, February 20, 2013

  Actual Average Record
Temperature  
Mean Temperature 36 °F -  
Max Temperature 37 °F 33 °F - (-1)
Min Temperature 35 °F 24 °F - (-1)
Degree Days  
Heating Degree Days 29    
Moisture  
Dew Point 34 °F    
Average Humidity 92    
Maximum Humidity 96    
Minimum Humidity 86    
Precipitation  
Precipitation 0.20 in - - ()
Sea Level Pressure  
Sea Level Pressure 29.36 in    
Wind  
Wind Speed 13 mph (East)    
Max Wind Speed 18 mph    
Max Gust Speed 33 mph    
Visibility 10 miles    
Events Rain    
Averages and records for this station are not official NWS values.
T = Trace of Precipitation, MM = Missing Value Source: NWS Daily Summary

Daily Weather History Graph

Daily Weather History Graph

Search for Another Location

Airport or City:

Trip Planner

Search our weather history database for the weather conditions in past years. The results will help you decide how hot, cold, wet, or windy it might be!

Date:

Astronomy

Feb. 20, 2013 Rise Set
Actual Time 7:22 AM AKST 5:09 PM AKST
Civil Twilight 6:40 AM AKST 5:51 PM AKST
Nautical Twilight 5:53 AM AKST 6:38 PM AKST
Astronomical Twilight 5:06 AM AKST 7:26 PM AKST
Moon 11:51 AM AKST (2/20) 4:36 AM AKST (2/20)
Length of Visible Light 11h 10m
Length of Day
9h 46m
Waxing Gibbous, 77% of the Moon is Illuminated
Feb 20
Waxing Gibbous
Feb 25
Full
Mar 4
Last Quarter
Mar 11
New
Mar 19
First Quarter

Hourly Weather History & Observations

Time (AKST) Temp. Windchill Dew Point Humidity Pressure Visibility Wind Dir Wind Speed Gust Speed Precip Events Conditions
12:54 AM 36.0 °F 29.0 °F 34.0 °F 93% 29.53 in 10.0 mi East 9.2 mph 19.6 mph 0.00 in   Overcast
1:52 AM 35.6 °F 27.5 °F 33.8 °F 93% 29.50 in 10.0 mi ENE 11.5 mph 17.3 mph 0.01 in Rain Light Rain
1:54 AM 36.0 °F 27.5 °F 33.1 °F 89% 29.51 in 10.0 mi ENE 12.7 mph 18.4 mph 0.01 in Rain Light Rain
2:04 AM 35.6 °F 27.1 °F 33.8 °F 93% 29.49 in 10.0 mi East 12.7 mph 21.9 mph 0.00 in Rain Light Rain
2:34 AM 35.6 °F 26.2 °F 33.8 °F 93% 29.47 in 10.0 mi ENE 15.0 mph 23.0 mph 0.00 in Rain Light Rain
3:29 AM 35.6 °F 27.1 °F 33.8 °F 93% 29.44 in 9.0 mi ENE 12.7 mph 20.7 mph 0.01 in Rain Light Rain
3:54 AM 35.1 °F 25.2 °F 33.1 °F 92% 29.44 in 10.0 mi East 16.1 mph 25.3 mph 0.02 in Rain Light Rain
4:03 AM 35.6 °F 26.6 °F 33.8 °F 93% 29.42 in 9.0 mi East 13.8 mph 25.3 mph 0.00 in Rain Light Rain
4:51 AM 35.6 °F 27.5 °F 33.8 °F 93% 29.39 in 9.0 mi East 11.5 mph 23.0 mph 0.01 in Rain Light Rain
4:54 AM 35.1 °F 25.5 °F 33.1 °F 92% 29.40 in 8.0 mi East 15.0 mph 23.0 mph 0.02 in Rain Light Rain
5:20 AM 35.6 °F 25.9 °F 33.8 °F 93% 29.38 in 9.0 mi East 16.1 mph 26.5 mph 0.01 in Rain Light Rain
5:54 AM 35.1 °F 25.2 °F 33.1 °F 92% 29.38 in 8.0 mi East 16.1 mph 25.3 mph 0.02 in Rain Light Rain
6:54 AM 35.1 °F 25.5 °F 33.1 °F 92% 29.36 in 10.0 mi East 15.0 mph 29.9 mph 0.03 in Rain Light Rain
7:54 AM 35.1 °F 25.9 °F 33.1 °F 92% 29.36 in 10.0 mi East 13.8 mph 25.3 mph 0.02 in Rain Light Rain
8:11 AM 35.6 °F 27.1 °F 33.8 °F 93% 29.35 in 10.0 mi East 12.7 mph 25.3 mph 0.00 in Rain Light Rain
8:32 AM 35.6 °F 27.1 °F 33.8 °F 93% 29.34 in 10.0 mi East 12.7 mph 23.0 mph 0.00 in Rain Light Rain
8:54 AM 35.1 °F 25.9 °F 33.1 °F 92% 29.35 in 10.0 mi East 13.8 mph 33.4 mph 0.00 in Rain Light Rain
9:54 AM 37.0 °F 27.0 °F 34.0 °F 89% 29.36 in 10.0 mi ESE 18.4 mph 31.1 mph 0.01 in Rain Light Rain
10:54 AM 37.9 °F 30.0 °F 34.0 °F 86% 29.36 in 10.0 mi East 12.7 mph 28.8 mph 0.00 in Rain Light Rain
11:54 AM 36.0 °F 27.1 °F 34.0 °F 93% 29.36 in 10.0 mi East 13.8 mph 24.2 mph 0.00 in Rain Light Rain
12:54 PM 36.0 °F 27.1 °F 34.0 °F 93% 29.34 in 10.0 mi East 13.8 mph 18.4 mph 0.01 in Rain Light Rain
1:36 PM 35.6 °F 27.5 °F 33.8 °F 93% 29.32 in 10.0 mi ESE 11.5 mph 21.9 mph 0.01 in Rain Light Rain
1:54 PM 35.1 °F 26.4 °F 33.1 °F 92% 29.33 in 10.0 mi East 12.7 mph 21.9 mph 0.02 in Rain Light Rain
2:54 PM 35.1 °F 26.4 °F 34.0 °F 96% 29.32 in 10.0 mi ESE 12.7 mph 20.7 mph 0.03 in Rain Light Rain
3:21 PM 35.6 °F 26.2 °F 33.8 °F 93% 29.31 in 9.0 mi ESE 15.0 mph 25.3 mph 0.00 in Rain Light Rain
3:54 PM 37.0 °F 27.7 °F 34.0 °F 89% 29.33 in 10.0 mi ESE 16.1 mph 31.1 mph 0.00 in Rain Light Rain
4:54 PM 36.0 °F 27.5 °F 34.0 °F 93% 29.32 in 10.0 mi East 12.7 mph 23.0 mph 0.01 in Rain Light Rain
5:54 PM 36.0 °F 28.0 °F 34.0 °F 93% 29.31 in 10.0 mi East 11.5 mph 21.9 mph 0.00 in   Overcast
6:54 PM 36.0 °F 27.5 °F 34.0 °F 93% 29.30 in 10.0 mi East 12.7 mph 19.6 mph N/A   Overcast
7:42 PM 35.6 °F 27.5 °F 33.8 °F 93% 29.30 in 10.0 mi East 11.5 mph 17.3 mph N/A   Overcast
7:54 PM 36.0 °F 28.5 °F 34.0 °F 93% 29.31 in 10.0 mi East 10.4 mph - N/A   Overcast
8:52 PM 35.6 °F 27.5 °F 33.8 °F 93% 29.30 in 10.0 mi ENE 11.5 mph 23.0 mph 0.00 in   Overcast
8:54 PM 36.0 °F 28.0 °F 33.1 °F 89% 29.31 in 10.0 mi ENE 11.5 mph 23.0 mph 0.00 in   Overcast
9:32 PM 35.6 °F 27.1 °F 33.8 °F 93% 29.30 in 10.0 mi East 12.7 mph 25.3 mph 0.00 in   Overcast
9:54 PM 36.0 °F 27.1 °F 33.1 °F 89% 29.31 in 10.0 mi ENE 13.8 mph 21.9 mph 0.00 in   Overcast
10:25 PM 35.6 °F 28.0 °F 33.8 °F 93% 29.30 in 10.0 mi East 10.4 mph 19.6 mph N/A   Overcast
10:45 PM 35.6 °F 27.1 °F 33.8 °F 93% 29.30 in 10.0 mi ENE 12.7 mph 20.7 mph 0.00 in Rain Light Rain
10:54 PM 36.0 °F 27.5 °F 33.1 °F 89% 29.31 in 10.0 mi ENE 12.7 mph 20.7 mph 0.00 in Rain Light Rain
11:08 PM 35.6 °F 27.5 °F 33.8 °F 93% 29.30 in 10.0 mi ENE 11.5 mph - 0.00 in Rain Light Rain
11:21 PM 35.6 °F 28.6 °F 33.8 °F 93% 29.30 in 10.0 mi East 9.2 mph 18.4 mph 0.00 in Rain Light Rain
11:54 PM 36.0 °F 28.5 °F 33.1 °F 89% 29.32 in 10.0 mi ENE 10.4 mph 21.9 mph 0.00 in   Overcast